Time,TemperatureF,DewpointF,PressureIn,WindDirection,WindDirectionDegrees,WindSpeedMPH,WindSpeedGustMPH,Humidity,HourlyPrecipIn,Conditions,Clouds,dailyrainin,SolarRadiationWatts/m^2,SoftwareType,DateUTC
2013-10-10 00:02:00,49.0,40.0,-100.00,WSW,239,1.0,3.0,71,0.00,,,0.00,0.000000,,2013-10-10 07:02:00,
2013-10-10 00:42:00,50.0,40.0,-100.00,SW,219,3.0,6.0,68,0.00,,,0.00,0.000000,,2013-10-10 07:42:00,
2013-10-10 00:52:00,50.0,40.0,-100.00,SW,219,3.0,6.0,68,0.00,,,0.00,0.000000,,2013-10-10 07:52:00,
2013-10-10 01:02:00,50.0,40.0,-100.00,SW,219,3.0,6.0,68,0.00,,,0.00,0.000000,,2013-10-10 08:02:00,
2013-10-10 01:22:00,47.0,39.0,-100.00,WSW,255,1.0,4.0,74,0.00,,,0.00,0.000000,,2013-10-10 08:22:00,
2013-10-10 01:32:00,47.0,39.0,-100.00,WSW,255,1.0,4.0,74,0.00,,,0.00,0.000000,,2013-10-10 08:32:00,
2013-10-10 01:43:00,47.0,39.0,-100.00,WSW,255,1.0,4.0,74,0.00,,,0.00,0.000000,,2013-10-10 08:43:00,
2013-10-10 01:52:00,47.0,39.0,-100.00,WSW,255,1.0,4.0,74,0.00,,,0.00,0.000000,,2013-10-10 08:52:00,
2013-10-10 02:01:00,47.0,39.0,-100.00,WSW,255,1.0,4.0,74,0.00,,,0.00,0.000000,,2013-10-10 09:01:00,
2013-10-10 02:43:00,47.0,39.0,-100.00,South,178,1.0,5.0,73,0.00,,,0.00,0.000000,,2013-10-10 09:43:00,
2013-10-10 02:53:00,47.0,39.0,-100.00,South,178,1.0,5.0,73,0.00,,,0.00,0.000000,,2013-10-10 09:53:00,
2013-10-10 03:03:00,47.0,39.0,-100.00,South,178,1.0,5.0,73,0.00,,,0.00,0.000000,,2013-10-10 10:03:00,
2013-10-10 03:42:00,44.0,38.0,-100.00,SSE,163,2.0,7.0,79,0.00,,,0.00,0.000000,,2013-10-10 10:42:00,
2013-10-10 03:53:00,44.0,38.0,-100.00,SSE,163,2.0,7.0,79,0.00,,,0.00,0.000000,,2013-10-10 10:53:00,
2013-10-10 04:02:00,44.0,38.0,-100.00,SSE,163,2.0,7.0,79,0.00,,,0.00,0.000000,,2013-10-10 11:02:00,
2013-10-10 07:42:00,40.0,36.0,-100.00,SW,217,1.0,3.0,87,-99.99,,,0.00,0.000000,,2013-10-10 14:42:00,
2013-10-10 07:52:00,40.0,36.0,-100.00,SW,217,1.0,3.0,87,-99.99,,,0.00,0.000000,,2013-10-10 14:52:00,
2013-10-10 08:02:00,40.0,36.0,-100.00,SW,217,1.0,3.0,87,-99.99,,,0.00,0.000000,,2013-10-10 15:02:00,
2013-10-10 08:43:00,44.0,37.0,-100.00,SE,132,1.0,4.0,77,0.00,,,0.00,30.000000,,2013-10-10 15:43:00,
2013-10-10 08:54:00,44.0,37.0,-100.00,SE,132,1.0,4.0,77,0.00,,,0.00,30.000000,,2013-10-10 15:54:00,
2013-10-10 09:03:00,44.0,37.0,-100.00,SE,132,1.0,4.0,77,0.00,,,0.00,30.000000,,2013-10-10 16:03:00,
2013-10-10 09:42:00,54.0,38.0,-100.00,SE,126,1.0,3.0,55,0.00,,,0.00,225.000000,,2013-10-10 16:42:00,
2013-10-10 09:53:00,54.0,38.0,-100.00,SE,126,1.0,3.0,55,0.00,,,0.00,225.000000,,2013-10-10 16:53:00,
2013-10-10 10:02:00,54.0,38.0,-100.00,SE,126,1.0,3.0,55,0.00,,,0.00,225.000000,,2013-10-10 17:02:00,
2013-10-10 11:42:00,66.0,37.0,-100.00,East,89,5.0,9.0,34,0.00,,,0.00,571.000000,,2013-10-10 18:42:00,
2013-10-10 11:52:00,66.0,37.0,-100.00,East,89,5.0,9.0,34,0.00,,,0.00,571.000000,,2013-10-10 18:52:00,
2013-10-10 12:01:00,66.0,37.0,-100.00,East,89,5.0,9.0,34,0.00,,,0.00,571.000000,,2013-10-10 19:01:00,
2013-10-10 12:42:00,70.0,40.0,-100.00,East,87,8.0,13.0,33,0.00,,,0.00,621.000000,,2013-10-10 19:42:00,
2013-10-10 15:43:00,76.0,40.0,-100.00,East,79,6.0,12.0,27,-99.99,,,0.00,661.000000,,2013-10-10 22:43:00,
2013-10-10 18:42:00,67.0,41.0,-100.00,East,99,6.0,10.0,38,-99.99,,,0.00,104.000000,,2013-10-11 01:42:00,
2013-10-10 18:52:00,67.0,41.0,-100.00,East,99,6.0,10.0,38,-99.99,,,0.00,104.000000,,2013-10-11 01:52:00,
2013-10-10 19:02:00,67.0,41.0,-100.00,East,99,6.0,10.0,38,-99.99,,,0.00,104.000000,,2013-10-11 02:02:00,
2013-10-10 19:42:00,60.0,46.0,-100.00,East,84,2.0,12.0,60,-99.99,,,0.00,7.000000,,2013-10-11 02:42:00,
2013-10-10 19:52:00,60.0,46.0,-100.00,East,84,2.0,12.0,60,-99.99,,,0.00,7.000000,,2013-10-11 02:52:00,
2013-10-10 20:02:00,60.0,46.0,-100.00,East,84,2.0,12.0,60,-99.99,,,0.00,7.000000,,2013-10-11 03:02:00,
2013-10-10 20:04:00,55.0,45.0,-100.00,ESE,103,0.0,4.0,70,0.00,,,0.00,0.000000,,2013-10-11 03:04:00,
2013-10-10 20:45:00,55.0,45.0,-100.00,ESE,103,0.0,4.0,70,0.00,,,0.00,0.000000,,2013-10-11 03:45:00,
2013-10-10 20:54:00,55.0,45.0,-100.00,ESE,103,0.0,4.0,70,0.00,,,0.00,0.000000,,2013-10-11 03:54:00,
2013-10-10 21:44:00,51.0,44.0,-100.00,South,189,0.0,2.0,77,0.00,,,0.00,0.000000,,2013-10-11 04:44:00,
2013-10-10 21:53:00,51.0,44.0,-100.00,South,189,0.0,2.0,77,0.00,,,0.00,0.000000,,2013-10-11 04:53:00,
2013-10-10 22:03:00,51.0,44.0,-100.00,South,189,0.0,2.0,77,0.00,,,0.00,0.000000,,2013-10-11 05:03:00,
2013-10-10 22:23:00,48.0,43.0,-100.00,SW,218,0.0,2.0,82,0.00,,,-99.99,0.000000,,2013-10-11 05:23:00,
2013-10-10 22:34:00,48.0,43.0,-100.00,SW,218,0.0,2.0,82,0.00,,,-99.99,0.000000,,2013-10-11 05:34:00,
2013-10-10 22:43:00,48.0,43.0,-100.00,SW,218,0.0,2.0,82,0.00,,,-99.99,0.000000,,2013-10-11 05:43:00,
2013-10-10 22:52:00,48.0,43.0,-100.00,SW,218,0.0,2.0,82,0.00,,,-99.99,0.000000,,2013-10-11 05:52:00,
2013-10-10 23:02:00,48.0,43.0,-100.00,SW,218,0.0,2.0,82,0.00,,,-99.99,0.000000,,2013-10-11 06:02:00,
2013-10-10 23:43:00,46.0,42.0,-100.00,SSW,209,0.0,0.0,87,0.00,,,0.00,0.000000,,2013-10-11 06:43:00,
2013-10-10 23:52:00,46.0,42.0,-100.00,SSW,209,0.0,0.0,87,0.00,,,0.00,0.000000,,2013-10-11 06:52:00,